CFG3RA EDLW-LEPA

Flight info

Callsign CFG3RA
Flight time 2h 6m
Altitude 35000
Route BAMSU2Q BAMSU M170 NVO Y841 KENUM DCT GESLO DCT LIMGO/N0451F350 DCT SUTAL DCT GTQ DCT POGOL DCT LASAT DCT MOROK DCT GILIR DCT GEVEA DCT INCUS DCT BALSI DCT RETNO DCT TUPOX DCT MTG DCT DIVKO DCT VATIR N852 VERSO DCT LUNIK
Aircraft A321/M-SDE2E3FGHIJ1RWXYZ/LB1

Departure

Time 2026-05-07 13:39
Airport Dortmund Airport (EDLW)

Arrival

Time 2026-05-07 15:45
Airport Palma de Mallorca Airport (LEPA)
Time Latitude Longitude Altitude Speed Heading
2026-05-07 13:11 51.51468 7.61117 434 ft 0 kts 143°
2026-05-07 13:31 51.51478 7.61106 409 ft 4 kts 143°
2026-05-07 13:31 51.51499 7.61080 432 ft 4 kts 133°
2026-05-07 13:32 51.51510 7.61054 421 ft 4 kts 61°
2026-05-07 13:32 51.51512 7.61052 430 ft 0 kts
2026-05-07 13:34 51.51539 7.61056 424 ft 7 kts 359°
2026-05-07 13:34 51.51571 7.61006 430 ft 8 kts 269°
2026-05-07 13:35 51.51544 7.60919 422 ft 9 kts 241°
2026-05-07 13:35 51.51504 7.60804 422 ft 14 kts 240°
2026-05-07 13:35 51.51455 7.60663 418 ft 14 kts 240°
2026-05-07 13:35 51.51428 7.60586 411 ft 0 kts 240°
2026-05-07 13:36 51.51424 7.60575 421 ft 5 kts 240°
2026-05-07 13:36 51.51392 7.60484 412 ft 12 kts 240°
2026-05-07 13:37 51.51360 7.60364 417 ft 11 kts 266°
2026-05-07 13:37 51.51419 7.60252 415 ft 16 kts 330°
2026-05-07 13:37 51.51480 7.60223 413 ft 5 kts 43°
2026-05-07 13:37 51.51482 7.60229 413 ft 1 kts 59°
2026-05-07 13:38 51.51482 7.60230 413 ft 0 kts 59°
2026-05-07 13:38 51.51522 7.60338 412 ft 44 kts 59°
2026-05-07 13:38 51.51801 7.61128 414 ft 114 kts 60°
2026-05-07 13:38 51.52281 7.62486 483 ft 158 kts 60°
2026-05-07 13:39 51.52793 7.63998 1265 ft 149 kts 59°
2026-05-07 13:39 51.53294 7.65451 1932 ft 148 kts 58°
2026-05-07 13:39 51.53830 7.66964 2192 ft 165 kts 57°
2026-05-07 13:39 51.54445 7.68684 2341 ft 189 kts 58°
2026-05-07 13:40 51.55140 7.70617 2595 ft 207 kts 57°
2026-05-07 13:40 51.55856 7.72649 3125 ft 212 kts 62°
2026-05-07 13:40 51.56056 7.74999 3696 ft 221 kts 103°
2026-05-07 13:40 51.55206 7.77046 4285 ft 229 kts 144°
2026-05-07 13:41 51.53713 7.77952 4945 ft 231 kts 174°
2026-05-07 13:41 51.52119 7.77684 5539 ft 233 kts 200°
2026-05-07 13:41 51.50667 7.76550 6194 ft 233 kts 216°
2026-05-07 13:41 51.49449 7.74802 6661 ft 242 kts 232°
2026-05-07 13:42 51.48562 7.72376 6880 ft 264 kts 249°
2026-05-07 13:42 51.47806 7.69665 7407 ft 273 kts 247°
2026-05-07 13:42 51.47010 7.66861 8100 ft 278 kts 246°
2026-05-07 13:42 51.46200 7.64031 8828 ft 281 kts 246°
2026-05-07 13:43 51.45374 7.61169 9558 ft 284 kts 245°
2026-05-07 13:43 51.44284 7.58517 10207 ft 289 kts 225°
2026-05-07 13:43 51.42670 7.56519 10586 ft 303 kts 216°
2026-05-07 13:43 51.40856 7.54545 10733 ft 325 kts 214°
2026-05-07 13:44 51.38907 7.52482 10859 ft 346 kts 214°
2026-05-07 13:44 51.36856 7.50296 11194 ft 358 kts 215°
2026-05-07 13:44 51.34815 7.47967 11772 ft 362 kts 217°
2026-05-07 13:44 51.32789 7.45534 12412 ft 366 kts 218°
2026-05-07 13:45 51.30761 7.43043 13040 ft 369 kts 219°
2026-05-07 13:45 51.28717 7.40527 13683 ft 372 kts 219°
2026-05-07 13:45 51.26655 7.38004 14258 ft 375 kts 219°
2026-05-07 13:45 51.24566 7.35473 14842 ft 377 kts 218°
2026-05-07 13:46 51.22469 7.32958 15424 ft 379 kts 218°
2026-05-07 13:46 51.20344 7.30429 15996 ft 382 kts 218°
2026-05-07 13:46 51.18213 7.27896 16539 ft 384 kts 218°
2026-05-07 13:46 51.16096 7.25381 17100 ft 386 kts 218°
2026-05-07 13:47 51.13937 7.22818 17652 ft 388 kts 218°
2026-05-07 13:47 51.11767 7.20242 18156 ft 391 kts 218°
2026-05-07 13:47 51.09579 7.17637 18609 ft 394 kts 218°
2026-05-07 13:47 51.07379 7.15016 19070 ft 396 kts 217°
2026-05-07 13:48 51.05167 7.12387 19513 ft 399 kts 217°
2026-05-07 13:48 51.02931 7.09736 19947 ft 401 kts 217°
2026-05-07 13:48 51.00688 7.07083 20405 ft 403 kts 217°
2026-05-07 13:48 50.98429 7.04419 20861 ft 405 kts 217°
2026-05-07 13:49 50.96158 7.01746 21297 ft 408 kts 217°
2026-05-07 13:49 50.93870 6.99059 21738 ft 410 kts 217°
2026-05-07 13:49 50.91572 6.96361 22181 ft 412 kts 217°
2026-05-07 13:49 50.89266 6.93649 22617 ft 414 kts 217°
2026-05-07 13:50 50.86963 6.90943 23056 ft 416 kts 217°
2026-05-07 13:50 50.84632 6.88207 23471 ft 419 kts 217°
2026-05-07 13:50 50.82281 6.85447 23847 ft 421 kts 217°
2026-05-07 13:50 50.79922 6.82688 24195 ft 423 kts 217°
2026-05-07 13:51 50.77580 6.79957 24536 ft 425 kts 217°
2026-05-07 13:51 50.75191 6.77174 24869 ft 427 kts 217°
2026-05-07 13:51 50.72794 6.74383 25206 ft 429 kts 217°
2026-05-07 13:51 50.70382 6.71579 25519 ft 432 kts 217°
2026-05-07 13:52 50.67957 6.68766 25844 ft 434 kts 217°
2026-05-07 13:52 50.65522 6.65945 26172 ft 436 kts 217°
2026-05-07 13:52 50.63071 6.63109 26494 ft 438 kts 217°
2026-05-07 13:52 50.60606 6.60261 26803 ft 440 kts 217°
2026-05-07 13:53 50.58134 6.57411 27092 ft 442 kts 217°
2026-05-07 13:53 50.55650 6.54548 27391 ft 444 kts 217°
2026-05-07 13:53 50.53151 6.51674 27703 ft 446 kts 217°
2026-05-07 13:53 50.50640 6.48796 27992 ft 448 kts 217°
2026-05-07 13:54 50.48111 6.45905 28275 ft 451 kts 217°
2026-05-07 13:54 50.45571 6.43007 28564 ft 452 kts 217°
2026-05-07 13:54 50.43023 6.40108 28941 ft 452 kts 217°
2026-05-07 13:54 50.40479 6.37216 29348 ft 451 kts 217°
2026-05-07 13:55 50.37946 6.34338 29752 ft 450 kts 217°
2026-05-07 13:55 50.35412 6.31462 30117 ft 450 kts 217°
2026-05-07 13:55 50.32876 6.28586 30438 ft 449 kts 217°
2026-05-07 13:55 50.30345 6.25719 30769 ft 449 kts 217°
2026-05-07 13:56 50.27819 6.22868 31099 ft 448 kts 217°
2026-05-07 13:56 50.25292 6.20021 31419 ft 447 kts 217°
2026-05-07 13:56 50.22768 6.17180 31755 ft 447 kts 217°
2026-05-07 13:56 50.20248 6.14343 32082 ft 446 kts 217°
2026-05-07 13:57 50.17727 6.11504 32418 ft 446 kts 217°
2026-05-07 13:57 50.15213 6.08681 32748 ft 445 kts 216°
2026-05-07 13:57 50.12529 6.06257 33070 ft 447 kts 206°
2026-05-07 13:57 50.09594 6.04659 33363 ft 449 kts 195°
2026-05-07 13:58 50.06530 6.03964 33655 ft 452 kts 184°
2026-05-07 13:58 50.03350 6.04203 33946 ft 454 kts 173°
2026-05-07 13:58 50.00311 6.05341 34184 ft 457 kts 162°
2026-05-07 13:58 49.97356 6.07158 34393 ft 458 kts 159°
2026-05-07 13:59 49.94395 6.09026 34631 ft 458 kts 159°
2026-05-07 13:59 49.91450 6.10877 34873 ft 457 kts 159°
2026-05-07 13:59 49.88499 6.12725 35018 ft 458 kts 160°
2026-05-07 14:00 49.82614 6.16397 35052 ft 455 kts 160°
2026-05-07 14:00 49.76746 6.20055 35055 ft 455 kts 160°
2026-05-07 14:01 49.70866 6.23715 35060 ft 455 kts 160°
2026-05-07 14:01 49.64988 6.27370 35053 ft 455 kts 160°
2026-05-07 14:02 49.59123 6.31060 35056 ft 455 kts 159°
2026-05-07 14:02 49.53322 6.34828 35043 ft 456 kts 158°
2026-05-07 14:03 49.47480 6.38635 35041 ft 456 kts 159°
2026-05-07 14:03 49.41647 6.42490 35041 ft 456 kts 158°
2026-05-07 14:04 49.35847 6.46484 35038 ft 457 kts 157°
2026-05-07 14:04 49.30055 6.50480 35033 ft 457 kts 158°
2026-05-07 14:05 49.24239 6.54434 35041 ft 457 kts 158°
2026-05-07 14:05 49.18416 6.58350 35043 ft 457 kts 158°
2026-05-07 14:06 49.12594 6.62252 35042 ft 457 kts 158°
2026-05-07 14:06 49.06778 6.66154 35042 ft 457 kts 158°
2026-05-07 14:07 49.00921 6.69914 35042 ft 455 kts 165°
2026-05-07 14:07 48.94785 6.71482 35042 ft 449 kts 182°
2026-05-07 14:08 48.88551 6.71208 35036 ft 448 kts 184°
2026-05-07 14:08 48.82309 6.70946 35035 ft 449 kts 184°
2026-05-07 14:09 48.76061 6.70711 35038 ft 449 kts 184°
2026-05-07 14:09 48.69814 6.70477 35043 ft 449 kts 184°
2026-05-07 14:10 48.63570 6.70239 35043 ft 449 kts 184°
2026-05-07 14:10 48.57321 6.69997 35045 ft 449 kts 184°
2026-05-07 14:11 48.51075 6.69744 35047 ft 449 kts 184°
2026-05-07 14:11 48.44826 6.69515 35044 ft 449 kts 184°
2026-05-07 14:12 48.39630 6.69325 35048 ft 449 kts 184°
2026-05-07 14:12 48.32372 6.69045 35047 ft 449 kts 184°
2026-05-07 14:13 48.26126 6.68796 35048 ft 449 kts 184°
2026-05-07 14:13 48.20934 6.68596 35043 ft 448 kts 184°
2026-05-07 14:14 48.14695 6.68364 35041 ft 448 kts 184°
2026-05-07 14:14 48.08458 6.68134 35038 ft 448 kts 184°
2026-05-07 14:15 48.02225 6.67901 35032 ft 448 kts 185°
2026-05-07 14:15 47.95988 6.67658 35038 ft 448 kts 185°
2026-05-07 14:16 47.89754 6.67421 35040 ft 448 kts 185°
2026-05-07 14:16 47.83513 6.67185 35043 ft 449 kts 185°
2026-05-07 14:17 47.77274 6.66944 35034 ft 449 kts 185°
2026-05-07 14:17 47.71066 6.66710 35041 ft 448 kts 185°
2026-05-07 14:18 47.64826 6.66478 35042 ft 448 kts 185°
2026-05-07 14:18 47.58597 6.66239 35030 ft 448 kts 185°
2026-05-07 14:19 47.52367 6.66004 35033 ft 447 kts 185°
2026-05-07 14:19 47.46141 6.65776 35038 ft 447 kts 186°
2026-05-07 14:20 47.40127 6.64067 35027 ft 436 kts 205°
2026-05-07 14:20 47.34968 6.59655 35024 ft 426 kts 223°
2026-05-07 14:21 47.30469 6.53957 35030 ft 426 kts 223°
2026-05-07 14:21 47.25944 6.48305 35031 ft 427 kts 223°
2026-05-07 14:22 47.21437 6.42699 35033 ft 427 kts 223°
2026-05-07 14:22 47.16910 6.37061 35032 ft 426 kts 223°
2026-05-07 14:23 47.12384 6.31421 35037 ft 426 kts 223°
2026-05-07 14:23 47.07658 6.26173 35040 ft 430 kts 211°
2026-05-07 14:24 47.01969 6.23358 35031 ft 439 kts 192°
2026-05-07 14:24 46.95869 6.22510 35029 ft 440 kts 189°
2026-05-07 14:25 46.89766 6.21709 35029 ft 440 kts 189°
2026-05-07 14:25 46.83667 6.20893 35027 ft 440 kts 189°
2026-05-07 14:26 46.77570 6.20072 35018 ft 440 kts 189°
2026-05-07 14:26 46.71514 6.19264 35034 ft 439 kts 189°
2026-05-07 14:27 46.65428 6.18458 35042 ft 439 kts 189°
2026-05-07 14:27 46.59349 6.17655 35037 ft 438 kts 189°
2026-05-07 14:28 46.53273 6.16859 35029 ft 438 kts 189°
2026-05-07 14:28 46.47193 6.16065 35026 ft 438 kts 189°
2026-05-07 14:29 46.41123 6.15267 35025 ft 438 kts 189°
2026-05-07 14:29 46.35051 6.14470 35005 ft 438 kts 190°
2026-05-07 14:30 46.28979 6.13678 35009 ft 438 kts 190°
2026-05-07 14:30 46.22921 6.12809 35010 ft 436 kts 192°
2026-05-07 14:31 46.16933 6.11504 35010 ft 434 kts 194°
2026-05-07 14:31 46.10972 6.10038 35014 ft 434 kts 194°
2026-05-07 14:32 46.05006 6.08646 35014 ft 435 kts 194°
2026-05-07 14:32 45.99021 6.07329 34999 ft 434 kts 194°
2026-05-07 14:33 45.93043 6.06028 35017 ft 434 kts 194°
2026-05-07 14:33 45.87115 6.04727 35013 ft 433 kts 194°
2026-05-07 14:34 45.81151 6.03411 34996 ft 433 kts 194°
2026-05-07 14:34 45.75198 6.02102 35004 ft 432 kts 194°
2026-05-07 14:35 45.69254 6.00813 34988 ft 432 kts 194°
2026-05-07 14:35 45.63315 5.99522 34989 ft 431 kts 194°
2026-05-07 14:36 45.57387 5.98207 34982 ft 431 kts 194°
2026-05-07 14:36 45.51470 5.96903 34990 ft 430 kts 194°
2026-05-07 14:37 45.45564 5.95553 34993 ft 428 kts 195°
2026-05-07 14:37 45.36883 5.92788 34988 ft 425 kts 198°
2026-05-07 14:38 45.31128 5.90868 34995 ft 425 kts 198°
2026-05-07 14:38 45.25354 5.89048 34998 ft 425 kts 197°
2026-05-07 14:39 45.19575 5.87274 34988 ft 425 kts 197°
2026-05-07 14:39 45.13809 5.85492 34989 ft 424 kts 197°
2026-05-07 14:40 45.08048 5.83713 34985 ft 423 kts 197°
2026-05-07 14:40 45.02327 5.81957 34965 ft 422 kts 197°
2026-05-07 14:41 44.96588 5.80194 34976 ft 422 kts 197°
2026-05-07 14:41 44.90846 5.78421 34978 ft 421 kts 197°
2026-05-07 14:42 44.85120 5.76661 34974 ft 421 kts 197°
2026-05-07 14:42 44.79402 5.74914 34973 ft 420 kts 197°
2026-05-07 14:43 44.73703 5.73175 34976 ft 419 kts 197°
2026-05-07 14:43 44.68012 5.71435 34973 ft 418 kts 197°
2026-05-07 14:44 44.62326 5.69706 34976 ft 418 kts 197°
2026-05-07 14:44 44.56639 5.67971 34970 ft 418 kts 197°
2026-05-07 14:45 44.50954 5.66249 34967 ft 418 kts 196°
2026-05-07 14:45 44.45266 5.64536 34959 ft 418 kts 196°
2026-05-07 14:46 44.39581 5.62822 34964 ft 417 kts 197°
2026-05-07 14:46 44.34143 5.60222 34967 ft 412 kts 205°
2026-05-07 14:47 44.28798 5.57287 34969 ft 413 kts 205°
2026-05-07 14:47 44.23480 5.54393 34970 ft 412 kts 205°
2026-05-07 14:48 44.18149 5.51482 34976 ft 411 kts 205°
2026-05-07 14:48 44.12817 5.48570 34975 ft 411 kts 205°
2026-05-07 14:49 44.07491 5.45674 34967 ft 411 kts 205°
2026-05-07 14:49 44.02166 5.42787 34973 ft 410 kts 205°
2026-05-07 14:50 43.96858 5.39910 34983 ft 409 kts 205°
2026-05-07 14:50 43.91550 5.37035 34983 ft 409 kts 205°
2026-05-07 14:51 43.86252 5.34171 34984 ft 408 kts 205°
2026-05-07 14:51 43.81001 5.31337 34991 ft 407 kts 205°
2026-05-07 14:52 43.75722 5.28491 34989 ft 406 kts 205°
2026-05-07 14:52 43.70454 5.25655 34956 ft 406 kts 205°
2026-05-07 14:53 43.65193 5.22837 34987 ft 405 kts 205°
2026-05-07 14:53 43.59952 5.20037 34992 ft 404 kts 205°
2026-05-07 14:54 43.54717 5.17239 34994 ft 403 kts 205°
2026-05-07 14:54 43.49498 5.14453 34982 ft 402 kts 206°
2026-05-07 14:55 43.44284 5.11673 34991 ft 401 kts 206°
2026-05-07 14:55 43.39109 5.08841 34990 ft 398 kts 211°
2026-05-07 14:56 43.34516 5.04824 34993 ft 393 kts 218°
2026-05-07 14:56 43.30011 5.00558 34989 ft 392 kts 217°
2026-05-07 14:57 43.25517 4.96328 35003 ft 390 kts 217°
2026-05-07 14:57 43.21043 4.92128 35019 ft 389 kts 218°
2026-05-07 14:58 43.16581 4.87939 35019 ft 388 kts 218°
2026-05-07 14:58 43.12876 4.84475 35009 ft 388 kts 217°
2026-05-07 14:59 43.08431 4.80327 35011 ft 385 kts 218°
2026-05-07 14:59 43.03928 4.76397 35014 ft 384 kts 213°
2026-05-07 15:00 42.99267 4.72846 35013 ft 383 kts 213°
2026-05-07 15:00 42.94609 4.69322 35013 ft 382 kts 213°
2026-05-07 15:01 42.89968 4.65815 35001 ft 380 kts 213°
2026-05-07 15:01 42.85349 4.62327 35007 ft 379 kts 213°
2026-05-07 15:02 42.80736 4.58855 35007 ft 378 kts 213°
2026-05-07 15:02 42.76173 4.55417 35016 ft 377 kts 213°
2026-05-07 15:03 42.71580 4.51963 35006 ft 377 kts 213°
2026-05-07 15:03 42.66982 4.48518 35004 ft 377 kts 213°
2026-05-07 15:04 42.62386 4.45082 34998 ft 377 kts 213°
2026-05-07 15:04 42.57789 4.41642 34993 ft 377 kts 213°
2026-05-07 15:05 42.53187 4.38206 34995 ft 378 kts 213°
2026-05-07 15:05 42.48588 4.34772 34994 ft 376 kts 213°
2026-05-07 15:06 42.44008 4.31362 35002 ft 375 kts 213°
2026-05-07 15:06 42.39431 4.27959 35003 ft 375 kts 213°
2026-05-07 15:07 42.34854 4.24577 34999 ft 374 kts 212°
2026-05-07 15:07 42.30280 4.21200 34983 ft 375 kts 212°
2026-05-07 15:08 42.25705 4.17813 34984 ft 375 kts 212°
2026-05-07 15:08 42.21159 4.14443 34986 ft 375 kts 212°
2026-05-07 15:09 42.16537 4.11047 34983 ft 376 kts 212°
2026-05-07 15:09 42.11979 4.07699 34968 ft 376 kts 211°
2026-05-07 15:10 42.07375 4.04331 34968 ft 377 kts 211°
2026-05-07 15:10 42.02762 4.00953 34973 ft 378 kts 211°
2026-05-07 15:11 41.98106 3.97672 34976 ft 381 kts 204°
2026-05-07 15:11 41.92954 3.95805 34976 ft 384 kts 199°
2026-05-07 15:12 41.87789 3.93962 34971 ft 383 kts 200°
2026-05-07 15:12 41.82685 3.91946 34981 ft 383 kts 200°
2026-05-07 15:13 41.77614 3.89917 34983 ft 382 kts 200°
2026-05-07 15:13 41.72505 3.87901 34985 ft 382 kts 200°
2026-05-07 15:14 41.67393 3.85918 34982 ft 382 kts 200°
2026-05-07 15:14 41.62287 3.83943 34989 ft 382 kts 200°
2026-05-07 15:15 41.57186 3.81970 34995 ft 381 kts 200°
2026-05-07 15:15 41.52095 3.79996 35002 ft 380 kts 200°
2026-05-07 15:16 41.47009 3.78026 34981 ft 380 kts 199°
2026-05-07 15:16 41.41924 3.76076 34991 ft 380 kts 199°
2026-05-07 15:17 41.36874 3.74144 34994 ft 379 kts 199°
2026-05-07 15:17 41.31804 3.72194 34986 ft 379 kts 199°
2026-05-07 15:18 41.26742 3.70251 34971 ft 379 kts 199°
2026-05-07 15:18 41.21683 3.68319 34982 ft 378 kts 199°
2026-05-07 15:19 41.16628 3.66386 34975 ft 378 kts 199°
2026-05-07 15:19 41.11564 3.64465 34976 ft 378 kts 199°
2026-05-07 15:20 41.06502 3.62559 34962 ft 378 kts 199°
2026-05-07 15:20 41.01439 3.60654 34965 ft 378 kts 199°
2026-05-07 15:21 40.96371 3.58756 34962 ft 378 kts 199°
2026-05-07 15:21 40.91301 3.56854 34956 ft 378 kts 199°
2026-05-07 15:22 40.86243 3.54958 34959 ft 378 kts 199°
2026-05-07 15:22 40.81208 3.53078 34949 ft 378 kts 199°
2026-05-07 15:23 40.76136 3.51180 34946 ft 379 kts 199°
2026-05-07 15:23 40.71063 3.49290 34949 ft 379 kts 199°
2026-05-07 15:24 40.65983 3.47398 34955 ft 379 kts 199°
2026-05-07 15:24 40.60898 3.45508 34959 ft 379 kts 199°
2026-05-07 15:25 40.55845 3.43642 34945 ft 379 kts 199°
2026-05-07 15:25 40.50767 3.41759 34946 ft 379 kts 199°
2026-05-07 15:26 40.45647 3.39885 34946 ft 381 kts 196°
2026-05-07 15:26 40.40360 3.39398 34415 ft 388 kts 183°
2026-05-07 15:27 40.37658 3.39551 33760 ft 388 kts 182°
2026-05-07 15:27 40.34968 3.39720 33070 ft 388 kts 182°
2026-05-07 15:27 40.32260 3.39891 32271 ft 390 kts 182°
2026-05-07 15:27 40.29534 3.40058 31429 ft 394 kts 182°
2026-05-07 15:28 40.26777 3.40217 30562 ft 399 kts 182°
2026-05-07 15:28 40.24026 3.39948 29643 ft 397 kts 194°
2026-05-07 15:28 40.21303 3.39219 28564 ft 403 kts 194°
2026-05-07 15:28 40.18566 3.38464 27821 ft 401 kts 194°
2026-05-07 15:29 40.15839 3.37695 27108 ft 399 kts 194°
2026-05-07 15:29 40.13131 3.36924 26432 ft 397 kts 194°
2026-05-07 15:29 40.10438 3.36163 25806 ft 396 kts 193°
2026-05-07 15:29 40.07742 3.35445 25172 ft 394 kts 193°
2026-05-07 15:30 40.05056 3.34762 24545 ft 393 kts 192°
2026-05-07 15:30 40.02381 3.34099 23946 ft 391 kts 192°
2026-05-07 15:30 39.99707 3.33445 23310 ft 390 kts 192°
2026-05-07 15:30 39.97056 3.32791 22615 ft 387 kts 191°
2026-05-07 15:31 39.94411 3.32134 21975 ft 385 kts 191°
2026-05-07 15:31 39.91794 3.31476 21336 ft 382 kts 191°
2026-05-07 15:31 39.89225 3.30822 20707 ft 380 kts 191°
2026-05-07 15:31 39.86639 3.30163 20086 ft 378 kts 191°
2026-05-07 15:32 39.84054 3.29504 19476 ft 377 kts 191°
2026-05-07 15:32 39.81486 3.28852 18877 ft 375 kts 191°
2026-05-07 15:32 39.78933 3.28207 18315 ft 374 kts 191°
2026-05-07 15:32 39.76381 3.27567 17676 ft 372 kts 191°
2026-05-07 15:33 39.73842 3.26934 17067 ft 370 kts 190°
2026-05-07 15:33 39.71326 3.26305 16512 ft 367 kts 190°
2026-05-07 15:33 39.68827 3.25663 16001 ft 364 kts 191°
2026-05-07 15:33 39.66362 3.25018 15483 ft 359 kts 191°
2026-05-07 15:34 39.63987 3.24064 14796 ft 357 kts 206°
2026-05-07 15:34 39.61992 3.22179 14151 ft 357 kts 224°
2026-05-07 15:34 39.60553 3.19564 13442 ft 357 kts 240°
2026-05-07 15:34 39.59444 3.16688 12638 ft 356 kts 241°
2026-05-07 15:35 39.58339 3.13814 11890 ft 354 kts 242°
2026-05-07 15:35 39.57243 3.10977 11284 ft 348 kts 241°
2026-05-07 15:35 39.56192 3.08259 11159 ft 327 kts 241°
2026-05-07 15:35 39.55191 3.05672 10755 ft 318 kts 242°
2026-05-07 15:36 39.54208 3.03138 10231 ft 309 kts 241°
2026-05-07 15:36 39.53256 3.00693 9685 ft 298 kts 240°
2026-05-07 15:36 39.52350 2.98378 9116 ft 287 kts 240°
2026-05-07 15:36 39.51460 2.96108 8549 ft 280 kts 241°
2026-05-07 15:37 39.50582 2.93861 8008 ft 280 kts 241°
2026-05-07 15:37 39.49691 2.91585 7455 ft 286 kts 241°
2026-05-07 15:37 39.48781 2.89264 6907 ft 290 kts 241°
2026-05-07 15:37 39.47879 2.86963 6410 ft 283 kts 241°
2026-05-07 15:38 39.47002 2.84723 5943 ft 276 kts 242°
2026-05-07 15:38 39.46138 2.82514 5350 ft 277 kts 242°
2026-05-07 15:38 39.45264 2.80281 4776 ft 276 kts 242°
2026-05-07 15:38 39.44406 2.78092 4364 ft 271 kts 241°
2026-05-07 15:39 39.43641 2.75865 4007 ft 271 kts 252°
2026-05-07 15:39 39.43305 2.73486 3827 ft 269 kts 264°
2026-05-07 15:39 39.43102 2.71114 3665 ft 261 kts 263°
2026-05-07 15:39 39.42895 2.68825 3513 ft 249 kts 263°
2026-05-07 15:40 39.42692 2.66612 3368 ft 247 kts 263°
2026-05-07 15:40 39.42493 2.64419 3257 ft 246 kts 265°
2026-05-07 15:40 39.42669 2.62287 3034 ft 233 kts 292°
2026-05-07 15:40 39.43484 2.60544 2763 ft 223 kts 310°
2026-05-07 15:41 39.44418 2.59012 2515 ft 209 kts 313°
2026-05-07 15:41 39.45497 2.57935 2258 ft 190 kts 341°
2026-05-07 15:41 39.46750 2.57624 2058 ft 182 kts
2026-05-07 15:41 39.47956 2.58008 2001 ft 177 kts 30°
2026-05-07 15:42 39.48921 2.58963 2003 ft 174 kts 51°
2026-05-07 15:42 39.49572 2.60230 1925 ft 159 kts 59°
2026-05-07 15:42 39.50119 2.61382 1757 ft 145 kts 59°
2026-05-07 15:42 39.50635 2.62470 1579 ft 140 kts 60°
2026-05-07 15:43 39.51133 2.63516 1402 ft 136 kts 59°
2026-05-07 15:43 39.51644 2.64556 1227 ft 138 kts 58°
2026-05-07 15:43 39.52170 2.65614 1054 ft 140 kts 60°
2026-05-07 15:43 39.52654 2.66689 820 ft 137 kts 60°
2026-05-07 15:44 39.53163 2.67746 602 ft 139 kts 60°
2026-05-07 15:44 39.53655 2.68806 414 ft 139 kts 62°
2026-05-07 15:44 39.54161 2.69868 249 ft 134 kts 60°
2026-05-07 15:44 39.54492 2.70582 168 ft 137 kts 61°
2026-05-07 15:45 39.55125 2.71932 39 ft 114 kts 59°
2026-05-07 15:45 39.55351 2.72413 38 ft 74 kts 58°
2026-05-07 15:45 39.55549 2.72835 38 ft 45 kts 59°
2026-05-07 15:45 39.55712 2.73231 38 ft 27 kts 79°
2026-05-07 15:46 39.55720 2.73497 38 ft 5 kts 91°
2026-05-07 15:46 39.55707 2.73532 36 ft 4 kts 140°
2026-05-07 15:46 39.55699 2.73536 38 ft 0 kts 155°
2026-05-07 15:47 39.55696 2.73538 38 ft 2 kts 158°
2026-05-07 15:47 39.55672 2.73530 38 ft 4 kts 205°
2026-05-07 15:47 39.55641 2.73503 38 ft 7 kts 205°
2026-05-07 15:47 39.55599 2.73518 38 ft 5 kts 150°
2026-05-07 15:48 39.55588 2.73526 38 ft 1 kts 149°
2026-05-07 15:48 39.55583 2.73530 38 ft 1 kts 149°
2026-05-07 15:48 39.55575 2.73536 38 ft 1 kts 149°
2026-05-07 15:48 39.55568 2.73542 38 ft 3 kts 149°
2026-05-07 15:49 39.55515 2.73583 38 ft 15 kts 149°
2026-05-07 15:49 39.55422 2.73655 38 ft 15 kts 149°
2026-05-07 15:49 39.55331 2.73727 38 ft 15 kts 149°
2026-05-07 15:49 39.55241 2.73799 38 ft 15 kts 148°
2026-05-07 15:50 39.55169 2.73790 38 ft 11 kts 228°
2026-05-07 15:50 39.55103 2.73772 38 ft 9 kts 194°
2026-05-07 15:50 39.55065 2.73713 38 ft 8 kts 239°
2026-05-07 15:50 39.55052 2.73686 38 ft 0 kts 239°